Regional Weather Roundup
Issued by NWS Upton, NY

Current Version | Previous Version | Graphics & Text | Print | Product List | Glossary Off
Versions: 1 2 3 4 5 6 7 8 9 10 11 12 13 14 15 16 17 18 19 20 21 22 23 24 25 26 27 28 29 30 31 32 33 34 35 36 37 38 39 40 41 42 43 44 45 46 47 48 49 50

000
ASUS41 KOKX 180005
RWROKX

REGIONAL WEATHER ROUNDUP
NATIONAL WEATHER SERVICE NEW YORK NY
700 PM EST WED DEC 17 2014

NOTE: "FAIR" INDICATES FEW OR NO CLOUDS BELOW 12,000 FEET WITH NO
SIGNIFICANT WEATHER AND/OR OBSTRUCTIONS TO VISIBILITY.

NYZ071-072-176-178-NJZ106-104-180100-
NEW YORK CITY METRO AREA


CITY           SKY/WX    TMP DP  RH WIND       PRES   REMARKS
CENTRAL PARK   CLOUDY    47  34  60 MISG      29.90R
LAGUARDIA APRT MOCLDY    47  35  63 NW16      29.88R
KENNEDY INTL   CLOUDY    49  34  56 W20G26    29.89R
NEWARK/LIBERTY CLOUDY    48  32  53 W22G28    29.89R
BRNX BOT. GARD   N/A     46  34  61 NW1       29.88R
TETERBORO      MOCLDY    46  35  65 NW18      29.87R
$$

NYZ177-179-078>081-180100-
LONG ISLAND NEW YORK

CITY           SKY/WX    TMP DP  RH WIND       PRES   REMARKS
FARMINGDALE    PTCLDY    47  35  63 NW10G18   29.87R
ISLIP          MOCLDY    47  36  65 W13       29.84R
SHIRLEY        PTCLDY    47  33  58 NW10G21   29.85R
WESTHAMPTON    PTCLDY    47  34  60 W16       29.84R
MONTAUK POINT    N/A     48  42  80 W5        29.82R
$$

NYZ052-065-067-180100-
HUDSON VALLEY

CITY           SKY/WX    TMP DP  RH WIND       PRES   REMARKS
WHITE PLAINS   CLOUDY    43  32  65 W16G23    29.85R
NEWBURGH       MOCLDY    41  34  75 W12       29.88R
MONTGOMERY     PTCLDY    41  32  70 NW10      29.86S
POUGHKEEPSIE   CLOUDY    43  33  68 W9        29.86S
ALBANY         LGT RAIN  38  31  76 W7        29.86S WCI  33
$$

NJZ001-105-106-008-010-013-015-019>022-104-180100-
NEW JERSEY

CITY           SKY/WX    TMP DP  RH WIND       PRES   REMARKS
NEWARK/LIBERTY CLOUDY    48  32  53 W22G28    29.89R
TETERBORO      MOCLDY    46  35  65 NW18      29.87R
CALDWELL       CLOUDY    45  34  65 NW6       29.89R
MORRISTOWN     CLOUDY    48  34  57 NW10G22   29.89R
SOMERVILLE     MOCLDY    45  30  55 VRB7      29.89R
SUSSEX         CLOUDY    42  34  73 SW5       29.88S
ANDOVER          N/A     42  30  62 VRB6      29.89R
TRENTON        MOCLDY    43  28  55 W8        29.92R
MILLVILLE      CLEAR     43  28  55 NW12      29.96R
ATLANTIC CITY  CLEAR     44  29  55 NW16      29.95R
WRIGHTSTOWN    CLEAR     43  29  57 W10G20    29.91R
TOMS RIVER     CLEAR     45  28  53 W12G20    29.93S
BELMAR         CLOUDY    45  28  53 W15G24    29.91R
$$

PAZ047>061-062-071-180100-
EASTERN PENNSYLVANIA

CITY           SKY/WX    TMP DP  RH WIND       PRES   REMARKS
PHILADELPHIA   PTCLDY    45  27  49 W13       29.97R
ALLENTOWN      CLOUDY    43  27  53 W8        29.93R
SCRANTON       CLOUDY    39  28  64 W5G17     29.90S
$$

CTZ002-004>006-009-010-012-RIZ004-006-007-MAZ004-011-015-180100-
SOUTHERN NEW ENGLAND
 IN CT

CITY           SKY/WX    TMP DP  RH WIND       PRES   REMARKS
BRADLEY INTL   CLOUDY    44  34  67 NW12      29.81R
HARTFORD       CLOUDY    45  35  68 VRB7G20   29.82R
DANBURY        CLOUDY    42  33  70 CALM      29.85R
WTRBRY/OXFORD  NOT AVBL
BRIDGEPORT     CLOUDY    47  33  58 NW18      29.84R
MERIDEN        CLOUDY    44  39  82 NW9       29.83R
NEW HAVEN      CLOUDY    49  35  58 NW9       29.83R
CHESTER        LGT RAIN  43  43 100 NW8       29.81S
GROTON         LGT RAIN  45  41  86 W13       29.79S
WILLIMANTIC    CLOUDY    46  36  68 NW9       29.80R

 IN RI

CITY           SKY/WX    TMP DP  RH WIND       PRES   REMARKS
PROVIDENCE     CLOUDY    47  37  68 W7        29.77R
BLOCK ISLAND   MOCLDY    46  39  76 W9        29.79R
WESTERLY       CLOUDY    47  39  74 VRB6      29.79S

 IN MA

CITY           SKY/WX    TMP DP  RH WIND       PRES   REMARKS
BOSTON         NOT AVBL
WORCESTER      MOCLDY    40  36  86 W17G28    29.73R WCI  31
WESTFIELD      MOCLDY    42  32  67 NW12G22   29.81R
PROVINCETOWN   CLOUDY    46  39  76 W15       29.72R
NANTUCKET      CLOUDY    47  39  74 W13       29.74R
$$

ANZ330-335-338-340-345-350-353-355-180100-
COASTAL MARINE OBSERVATIONS


STATION/POSITION TIME  SKY/WX   TEMP    WIND        PRES    VSBY  WAVE
                                AIR SEA DIR/SP/G                  HT/PER
                 (UTC)          (F)     (DEG/KT/KT) (MB)    (MI)  (FT/S)
NY HARB ENTRANCE 0000            47 46  280/ 16/ 19 1012.0          3/ 3
4S FIRE IS       0000               46                N/A           3/ 7
20S FIRE ISLAND  2300            49 50              1011.0          4/ 5
23SW MTP         0000                                 N/A           4/ 7
HUDSON CANYON    0000            51 56  290/ 21/ 27 1011.3          7/ 6
EXECUTION ROCKS  0000            46 42  330/ 10/ 16   N/A
WESTERN LI SOUND 0000            46     290/ 16/ 21   N/A           1/ 2
CENTRAL LI SOUND 2300            47 45  290/ 16/ 19   N/A           1/ 3
EASTERN LI SOUND NOT AVBL
ROBBINS REEF     0000            48     290/ 10/ 12 1010.5
$$


>>>>>>>>>>>>>>>>>>>>>>>>>>>> KEY <<<<<<<<<<<<<<<<<<<<<<<<<<<
>                                                          <
>     SKY/WX - SKY CONDITION/PRESENT WEATHER               <
>     TMP    - TEMPERATURE IN FAHRENHEIT                   <
>     DP     - DEWPOINT IN FAHRENHEIT                      <
>     RH     - RELATIVE HUMIDITY IN PERCENT                <
>     WIND   - DIRECTION AND SPEED IN MPH                  <
>     PRES   - MEAN SEA LEVEL PRESSURE IN INCHES OF HG     <
>     WCI    - WIND CHILL INDEX                            <
>     VSB    - VISIBILITY IN MILES                         <
>     HX     - HEAT INDEX                                  <
>     TC     - TEMPERATURE IN CELSIUS                      <
>     VRB    - VARIABLE WIND DIRECTION                     <
>                                                          <
>>>>>>>>>>>>>>>>>>>>>>>>>>>> KEY <<<<<<<<<<<<<<<<<<<<<<<<<<<





USA.gov is the U.S. government's official web portal to all federal, state and local government web resources and services.